(88) Thisbe
ephemeris date magn radius delta ra dec elong phase
Opposition28 Dec 202411.43.106 AU2.123 AU06h30m+23°09'179.8°0.1°
Today5 Feb 202512.43.142 AU2.373 AU06h01m+22°35'134.3°13.0°
(88) Thisbe - 2025-02-05
astro.vanbuitenen.nl


 
-1 year
-1 month
-1 day
Now
+1 day
+1 month
+1 year

The interactive orbit chart above shows the body's path through the solar system and its position at the given date. Green and blue lines are shown perpendicular to the ecliptic plane: Green if the path is above the ecliptic plane, blue if it is below. (Left-click and drag to rotate the view; Right-click and drag to move the view; Use scroll wheel to zoom in our out.)

The orbital elements of Thisbe are:

            e (Eccentricity)                : 0.1633931
            a (Semimajor axis)              : 2.7713163
            i (Inclination)                 : 5.22264
            Ω (Longitude of ascending node) : 276.32440
            ω (Argument of perihelion)      : 37.05322
            M (Mean anomaly)                : 115.90366
            Epoch                           : 2024 Oct 17

            L (Longitude of perihelion)     : 313.26306
            B (Latitude of perihelion)      : 3.14416
            P (Orbital period in years)     : 4.61            
        

The light curve chart below shows the estimated development of the minor planet's magnitude.


The all-sky chart below shows the path of the minor planet over the same period as the light curve. The current position is marked yellow.





The following chart shows the path of the minor planet in the next few days. The field of view is optimized for (~10x50) binoculars and finderscopes. A more printer-friendly version of the same chart can be found below.




Ephemerides:
Date       Time       RA (2000)    DEC (2000)    delta   radius  elong  phase   PA    magn
2025-02-05 00:00 UT   06 01 51.7   +22 35 08     2.373    3.142  134.3   13.0    89   12.4 
2025-02-05 13:56 UT   06 01 39.6   +22 34 36     2.379    3.143  133.7   13.1    89   12.4 
2025-02-06 00:00 UT   06 01 31.2   +22 34 12     2.384    3.143  133.2   13.2    89   12.4 
2025-02-07 00:00 UT   06 01 12.2   +22 33 17     2.396    3.144  132.2   13.4    89   12.4 
2025-02-08 00:00 UT   06 00 54.8   +22 32 23     2.407    3.145  131.1   13.7    89   12.5 
2025-02-09 00:00 UT   06 00 38.9   +22 31 29     2.419    3.146  130.0   13.9    89   12.5 
2025-02-10 00:00 UT   06 00 24.6   +22 30 35     2.431    3.146  128.9   14.1    89   12.5 
2025-02-11 00:00 UT   06 00 11.8   +22 29 43     2.443    3.147  127.9   14.3    89   12.5 
2025-02-12 00:00 UT   06 00 00.5   +22 28 51     2.456    3.148  126.8   14.5    89   12.5 
2025-02-13 00:00 UT   05 59 50.8   +22 27 60     2.468    3.149  125.8   14.7    89   12.6 
2025-02-14 00:00 UT   05 59 42.6   +22 27 09     2.481    3.150  124.7   14.9    89   12.6 
2025-02-15 00:00 UT   05 59 35.9   +22 26 20     2.493    3.151  123.7   15.1    89   12.6 
2025-02-16 00:00 UT   05 59 30.7   +22 25 31     2.506    3.151  122.7   15.3    89   12.6 
2025-02-17 00:00 UT   05 59 27.0   +22 24 43     2.519    3.152  121.6   15.5    89   12.6 
2025-02-18 00:00 UT   05 59 24.8   +22 23 55     2.533    3.153  120.6   15.6    89   12.6 
2025-02-19 00:00 UT   05 59 24.1   +22 23 08     2.546    3.154  119.6   15.8    89   12.7 
2025-02-20 00:00 UT   05 59 24.9   +22 22 22     2.559    3.155  118.6   16.0    89   12.7 
2025-02-21 00:00 UT   05 59 27.2   +22 21 37     2.573    3.155  117.6   16.1    89   12.7 
2025-02-22 00:00 UT   05 59 30.9   +22 20 52     2.586    3.156  116.6   16.3    89   12.7 
2025-02-23 00:00 UT   05 59 36.1   +22 20 09     2.600    3.157  115.6   16.4    89   12.7 
2025-02-24 00:00 UT   05 59 42.8   +22 19 25     2.614    3.158  114.7   16.5    89   12.8 
2025-02-25 00:00 UT   05 59 50.8   +22 18 43     2.628    3.158  113.7   16.7    89   12.8 
2025-02-26 00:00 UT   06 00 00.3   +22 18 01     2.642    3.159  112.7   16.8    90   12.8 
2025-02-27 00:00 UT   06 00 11.3   +22 17 20     2.656    3.160  111.7   16.9    90   12.8 
2025-02-28 00:00 UT   06 00 23.6   +22 16 39     2.670    3.161  110.8   17.0    90   12.8 
2025-03-01 00:00 UT   06 00 37.3   +22 15 58     2.685    3.161  109.8   17.1    90   12.8 
2025-03-02 00:00 UT   06 00 52.4   +22 15 19     2.699    3.162  108.9   17.2    90   12.8 
2025-03-03 00:00 UT   06 01 08.8   +22 14 39     2.714    3.163  108.0   17.3    90   12.9 
2025-03-04 00:00 UT   06 01 26.6   +22 14 00     2.728    3.164  107.0   17.4    90   12.9 
2025-03-05 00:00 UT   06 01 45.7   +22 13 22     2.743    3.164  106.1   17.5    90   12.9 
2025-03-06 00:00 UT   06 02 06.1   +22 12 44     2.757    3.165  105.2   17.6    90   12.9 
2025-03-07 00:00 UT   06 02 27.8   +22 12 05     2.772    3.166  104.3   17.7    90   12.9 


    Terminology:
            
    delta:  distance between minor planet and earth in AU
    radius: distance between minor planet and sun in AU
    magn:   magnitude (brightness) estimate    
    ra:     right ascension in hours (24h = 360deg)
    dec:    declination in degrees
    elong:  elongation in degrees (angle sun-earth-minor planet)    
    phase:  phase angle in degrees (angle sun-minor planet-earth)        
    AU:     Astronomical Unit (mean distance between earth and sun: 149597870.7 km
    

Orbital elements provided by the MPC (Minor Planet Center).
Calculations by a modified version of AAPlus, a C# implementation of the AA+ project by PJ Naughter from the algorithms presented in the book "Astronomical Algorithms" by Jean Meeus.
NGC2000 dso catalog and star labels from VizieR as provided by the Strasbourg astronomical Data Center.
Tycho2 catalog from the ESO archive.